This is the latest recevied weather packets stored in our database for station/object K6CED. If no packets are shown the sender has not sent any weather packets the latest 10 day(s).
| Time | Temp. | Humidity | Pressure | Rain* | Wind** | Luminosity | Snow |
|---|---|---|---|---|---|---|---|
| 1788356281 | 11.67° C | 97% | 1018.4 hPa | 0 mm | - | 14 W/m² | - |
| 1788355989 | 12.22° C | 97% | 1018.6 hPa | 0 mm | - | 9 W/m² | - |
| 1788355676 | 12.22° C | 97% | 1018.5 hPa | 0 mm | - | 6 W/m² | - |
| 1788355372 | 12.22° C | 97% | 1018.6 hPa | 0 mm | - | 3 W/m² | - |
| 1788355067 | 12.78° C | 97% | 1018.4 hPa | 0 mm | - | 1 W/m² | - |
| 1788354763 | 12.78° C | 97% | 1018.4 hPa | 0 mm | - | 1 W/m² | - |
| 1788354463 | 12.78° C | 97% | 1018.5 hPa | 0 mm | - | 0 W/m² | - |
| 1788354159 | 12.78° C | 97% | 1018.2 hPa | 0 mm | - | 0 W/m² | - |
| 1788353854 | 12.78° C | 96% | 1018.4 hPa | 0 mm | - | 0 W/m² | - |
| 1788353550 | 12.78° C | 96% | 1018.4 hPa | 0 mm | - | 0 W/m² | - |
| 1788353246 | 12.78° C | 96% | 1018.4 hPa | 0 mm | - | 0 W/m² | - |
| 1788352941 | 12.78° C | 96% | 1018.5 hPa | 0 mm | - | 0 W/m² | - |
| 1788352631 | 13.33° C | 96% | 1018.4 hPa | 0 mm | - | 0 W/m² | - |
| 1788352327 | 13.33° C | 96% | 1018.6 hPa | 0 mm | - | 0 W/m² | - |
| 1788352025 | 13.33° C | 96% | 1018.4 hPa | 0 mm | - | 0 W/m² | - |
| 1788351722 | 13.33° C | 95% | 1018.3 hPa | 0 mm | - | 0 W/m² | - |
| 1788351416 | 13.33° C | 95% | 1018.4 hPa | 0 mm | - | 0 W/m² | - |
| 1788351110 | 13.33° C | 94% | 1018.7 hPa | 0 mm | - | 0 W/m² | - |
| 1788350807 | 13.33° C | 94% | 1018.5 hPa | 0 mm | - | 0 W/m² | - |
| 1788350503 | 13.33° C | 94% | 1018.6 hPa | 0 mm | - | 0 W/m² | - |
| 1788350198 | 13.89° C | 93% | 1018.8 hPa | 0 mm | - | 0 W/m² | - |
| 1788349894 | 13.33° C | 93% | 1018.5 hPa | 0 mm | - | 0 W/m² | - |
| 1788349590 | 13.33° C | 92% | 1018.7 hPa | 0 mm | - | 0 W/m² | - |
| 1788349289 | 12.78° C | 93% | 1018.5 hPa | 0 mm | - | 0 W/m² | - |
| 1788348984 | 13.33° C | 93% | 1018.6 hPa | 0 mm | - | 0 W/m² | - |
* Rain latest hour (hover to see other rain measurements)
** Current wind speed in m/s (hover to see current wind gust speed)